Weather in Alice

United States     27°44′58″N   98°04′10″W
temp.,
°C
wind,
m/s
gust,
m/s
humid.,
%
clouds,
%
prec.,
mm/h
press.,
hPa
HPBL,
m
28 may, sat
sat2801:00+24sse38951 0.0 1013239
04:00+24sse4109964 0.0 1012411
07:00+24s599089 0.0 1013511
10:00+30s67630 0.0 10131104
13:00+35s67330 0.0 10111865
16:00+36sse56280 0.0 10082350
19:00+30se89580 0.0 1008701
22:00+25se713860 0.0 1009408
29 may, sun
sun2901:00+24sse6139423 0.0 1009507
04:00+23s5139638 0.0 1008546
07:00+24s61289100 0.0 1008690
10:00+29s79600 0.0 10091071
13:00+35sse78310 0.0 10071977
16:00+35se1110380 0.0 10051941
19:00+30se1012560 0.0 1005893
22:00+25se815833 0.0 1007653
30 may, mon
mon3001:00+25sse8148731 0.0 1007846
04:00+24sse7138836 0.0 1006800
07:00+24sse715892 0.1 1007834
10:00+30sse9115722 0.0 10081556
13:00+35se910380 0.0 10072209
16:00+34se1110485 0.0 10061593
19:00+30se1011590 0.0 10061072
22:00+26se7138822 0.0 1009771
31 may, tue
tue3101:00+25se7139029 0.0 1009779
04:00+25se6129035 0.1 1009741
07:00+25se5129228 0.3 1009624
10:00+30sse895725 0.1 10101461
13:00+35se894219 0.1 10102247
16:00+34se88425 0.0 10092161
19:00+30ese995715 0.0 10091447
22:00+26ese611847 0.0 1012691
1 june, wed
wed101:00+25se6129032 0.1 1012659
04:00+24se411930 0.1 1011519
07:00+24ese38945 0.2 1013362
10:00+30se686037 0.2 10141378
13:00+34se774170 0.2 10132198
16:00+34ese884068 0.0 10112242
19:00+30se885226 0.0 10111535
22:00+25se510790 0.0 1012519